Date String (YYYY-MM-DD hh:mm:ss) UTC,Instrument flags,Ambient pressure (hPa),Sample flow (lpm),Bypass flow (lpm),Sample temperature (°C),Ambient temperature (°C),ASC tube jacket temperature (°C),LED temperature (°C),Box temperature (°C),Sample RH (%),Span deviation,Mass concentration (μg/m³),Mass concentration (μg/m³),Mass concentration (μg/m³)
DateTimeUTC,F1_M11,P_M11,Q1_M11,Q2_M11,T1_M11,T2_M11,T3_M11,T4_M11,T5_M11,U1_M11,ZSPAN_M11,X0_M11,X2_M11,X1_M11
2022-12-22 06:00:00,,0825.2,5.05,0.00,21.4,21.9,00.0,29.8,23.0,03.2,0000.4,0011.94,0004.94,0003.81
2022-12-22 06:01:00,,0825.2,4.98,0.00,21.3,20.6,00.0,29.9,22.6,03.2,0001.0,0011.77,0004.94,0003.82
2022-12-22 06:02:00,,0825.2,5.00,0.00,21.0,19.3,00.0,29.9,22.1,03.2,0001.5,0011.64,0004.95,0003.83
2022-12-22 06:03:00,,0825.2,5.02,0.00,20.9,19.0,00.0,29.8,22.0,03.3,0001.7,0010.93,0004.99,0003.86
2022-12-22 06:04:00,,0825.1,4.98,0.00,21.0,20.0,00.0,29.8,22.3,03.3,0002.2,0010.32,0004.99,0003.87
2022-12-22 06:05:00,,0824.9,4.99,0.00,21.1,20.7,00.0,29.8,22.5,03.2,0002.2,0010.16,0004.92,0003.87
2022-12-22 06:06:00,,0824.9,4.97,0.00,21.1,21.3,00.0,29.8,22.7,03.2,0001.9,0010.13,0004.93,0003.88
2022-12-22 06:07:00,,0825.0,5.05,0.00,21.2,21.8,00.0,29.8,22.9,03.2,0001.7,0010.21,0004.99,0003.91
2022-12-22 06:08:00,,0825.2,4.97,0.00,21.3,22.1,00.0,29.8,23.0,03.2,0002.2,0010.29,0005.00,0003.93
2022-12-22 06:09:00,,0825.2,5.01,0.00,21.3,21.3,00.0,29.9,22.8,03.2,0002.4,0010.13,0005.02,0003.94
2022-12-22 06:10:00,,0825.2,4.98,0.00,21.1,19.9,00.0,29.9,22.4,03.2,0002.7,0011.14,0005.01,0003.96
2022-12-22 06:11:00,,0825.2,5.03,0.00,20.9,18.9,00.0,29.9,22.0,03.3,0002.7,0011.19,0004.98,0003.97
2022-12-22 06:12:00,,0825.3,4.97,0.00,20.9,19.6,00.0,29.8,22.2,03.3,0002.2,0011.69,0004.96,0003.98
2022-12-22 06:13:00,,0825.3,5.01,0.00,21.0,20.4,00.0,29.8,22.4,03.3,0002.3,0011.81,0004.94,0003.99
2022-12-22 06:14:00,,0825.4,4.97,0.00,21.1,21.1,00.0,29.8,22.6,03.3,0002.6,0011.96,0004.98,0004.00
2022-12-22 06:15:00,,0825.4,5.04,0.00,21.2,21.6,00.0,29.8,22.8,03.3,0002.9,0012.02,0005.01,0004.02
2022-12-22 06:16:00,,0825.4,4.98,0.00,21.3,22.0,00.0,29.8,23.0,03.2,0002.6,0012.19,0005.07,0004.05
2022-12-22 06:17:00,,0825.3,4.98,0.00,21.3,21.4,00.0,29.9,22.9,03.2,0002.8,0012.24,0005.09,0004.06
2022-12-22 06:18:00,,0825.2,5.02,0.00,21.1,20.0,00.0,29.9,22.4,03.2,0003.0,0012.19,0005.07,0004.06
2022-12-22 06:19:00,,0825.3,5.04,0.00,20.9,18.8,00.0,29.9,22.0,03.3,0002.7,0012.05,0005.06,0004.07
2022-12-22 06:20:00,,0825.3,5.00,0.00,20.8,18.6,00.0,29.9,21.8,03.3,0002.5,0011.69,0005.04,0004.07
2022-12-22 06:21:00,,0825.1,4.96,0.00,20.8,19.6,00.0,29.8,22.1,03.3,0003.0,0010.51,0005.05,0004.07
2022-12-22 06:22:00,,0825.0,5.03,0.00,20.9,20.5,00.0,29.7,22.4,03.3,0003.1,0010.62,0005.06,0004.08
2022-12-22 06:23:00,,0825.2,4.97,0.00,21.0,21.1,00.0,29.7,22.6,03.3,0002.6,0010.67,0005.07,0004.08
2022-12-22 06:24:00,,0825.3,5.04,0.00,21.1,21.5,00.0,29.7,22.8,03.3,0002.6,0010.43,0005.08,0004.09
2022-12-22 06:25:00,,0825.4,4.97,0.00,21.2,21.9,00.0,29.8,23.0,03.2,0002.7,0010.49,0005.04,0004.08
2022-12-22 06:26:00,,0825.4,4.98,0.00,21.3,22.1,00.0,29.8,23.1,03.2,0002.4,0011.51,0005.05,0004.07
2022-12-22 06:27:00,,0825.3,5.04,0.00,21.2,20.9,00.0,29.9,22.7,03.2,0002.3,0011.63,0005.03,0004.06
2022-12-22 06:28:00,,0825.3,5.00,0.00,21.0,19.3,00.0,29.9,22.2,03.3,0002.7,0011.86,0005.03,0004.05
2022-12-22 06:29:00,,0825.3,4.97,0.00,20.9,18.8,00.0,29.9,21.9,03.3,0002.4,0012.04,0005.05,0004.04
2022-12-22 06:30:00,,0825.3,5.02,0.00,20.9,19.8,00.0,29.8,22.2,03.3,0002.2,0012.18,0005.05,0004.03
2022-12-22 06:31:00,,0825.4,5.02,0.00,21.0,20.6,00.0,29.7,22.4,03.3,0002.7,0012.99,0005.09,0004.03
2022-12-22 06:32:00,,0825.4,4.97,0.00,21.1,21.2,00.0,29.7,22.7,03.3,0002.8,0013.21,0005.06,0004.02
2022-12-22 06:33:00,,0825.4,4.99,0.00,21.2,21.5,00.0,29.7,22.8,03.3,0002.7,0013.16,0005.06,0004.04
2022-12-22 06:34:00,,0825.4,5.03,0.00,21.2,21.8,00.0,29.8,22.9,03.2,0003.4,0013.43,0005.05,0004.04
2022-12-22 06:35:00,,0825.3,4.98,0.00,21.3,22.0,00.0,29.8,23.0,03.2,0002.3,0014.68,0005.04,0004.03
2022-12-22 06:36:00,,0825.4,5.04,0.00,21.4,22.1,00.0,29.8,23.1,03.2,0001.2,0014.41,0005.03,0004.04
2022-12-22 06:37:00,,0825.4,4.97,0.00,21.5,22.2,00.0,29.9,23.2,03.2,0002.2,0013.19,0004.95,0004.02
2022-12-22 06:38:00,,0825.3,5.00,0.00,21.5,21.9,00.0,29.9,23.1,03.2,0002.7,0013.09,0004.96,0004.03
2022-12-22 06:39:00,,0824.9,4.98,0.00,21.4,20.3,00.0,30.0,22.6,03.2,0002.8,0012.78,0004.95,0004.05
2022-12-22 06:40:00,,0824.6,5.03,0.00,21.1,19.0,00.0,30.0,22.0,03.2,0003.0,0012.54,0004.92,0004.06
2022-12-22 06:41:00,,0824.9,5.03,0.00,21.0,18.9,00.0,29.9,22.0,03.3,0003.4,0012.47,0004.93,0004.06
2022-12-22 06:42:00,,0825.1,4.96,0.00,21.0,19.9,00.0,29.9,22.3,03.3,0003.6,0011.56,0004.85,0004.05
2022-12-22 06:43:00,,0825.2,5.01,0.00,21.1,20.5,00.0,29.8,22.5,03.2,0003.2,0011.61,0004.79,0004.03
2022-12-22 06:44:00,,0825.0,5.03,0.00,21.1,21.0,00.0,29.8,22.6,03.2,0003.2,0011.63,0004.77,0004.00
2022-12-22 06:45:00,,0824.7,4.97,0.00,21.2,21.4,00.0,29.8,22.8,03.2,0003.0,0011.19,0004.82,0004.00
2022-12-22 06:46:00,,0824.5,5.01,0.00,21.3,21.6,00.0,29.8,22.9,03.2,0003.7,0009.88,0004.86,0004.00
2022-12-22 06:47:00,,0824.5,5.01,0.00,21.4,21.8,00.0,29.9,23.0,03.2,0004.0,0009.93,0004.88,0003.99
2022-12-22 06:48:00,,0824.4,4.97,0.00,21.4,22.0,00.0,29.9,23.1,03.2,0003.9,0009.94,0004.88,0004.00
2022-12-22 06:49:00,,0824.7,5.03,0.00,21.5,22.2,00.0,29.9,23.2,03.2,0003.4,0010.34,0004.91,0004.00
2022-12-22 06:50:00,,0824.9,4.96,0.00,21.5,21.6,00.0,30.0,23.0,03.2,0003.4,0010.75,0004.90,0003.97
2022-12-22 06:51:00,,0824.7,5.04,0.00,21.4,20.2,00.0,30.1,22.6,03.2,0003.3,0010.67,0004.85,0003.96
2022-12-22 06:52:00,,0824.6,5.01,0.00,21.1,19.0,00.0,30.1,22.1,03.2,0003.4,0010.86,0004.83,0003.96
2022-12-22 06:53:00,,0824.6,4.96,0.00,21.1,19.6,00.0,30.0,22.2,03.2,0003.2,0011.07,0004.89,0003.97
2022-12-22 06:54:00,,0824.8,5.01,0.00,21.2,20.5,00.0,29.9,22.5,03.2,0003.2,0010.62,0004.92,0003.98
2022-12-22 06:55:00,,0824.9,5.04,0.00,21.2,21.1,00.0,29.9,22.8,03.2,0003.1,0010.29,0004.90,0003.98
2022-12-22 06:56:00,,0824.9,4.97,0.00,21.3,21.7,00.0,29.9,23.0,03.2,0002.8,0010.16,0004.87,0003.99
2022-12-22 06:57:00,,0824.9,5.00,0.00,21.4,21.8,00.0,30.0,23.0,03.2,0002.6,0010.13,0004.80,0003.99
2022-12-22 06:58:00,,0824.8,4.98,0.00,21.3,20.6,00.0,30.0,22.7,03.2,0002.3,0010.17,0004.76,0003.99
2022-12-22 06:59:00,,0824.7,5.02,0.00,21.1,19.1,00.0,30.0,22.2,03.2,0002.5,0010.30,0004.78,0003.99
